TimeCDT,TemperatureF,Dew PointF,Humidity,Sea Level PressureIn,VisibilityMPH,Wind Direction,Wind SpeedMPH,Gust SpeedMPH,PrecipitationIn,Events,Conditions,WindDirDegrees,DateUTC
12:13 AM,44.6,23.0,43,29.89,10.0,SSW,12.7,18.4,N/A,,Clear,210,2012-10-08 05:13:00
12:34 AM,42.8,23.0,46,29.88,10.0,SSW,13.8,18.4,N/A,,Clear,210,2012-10-08 05:34:00
12:53 AM,42.8,24.8,49,29.88,10.0,SSW,12.7,18.4,N/A,,Clear,210,2012-10-08 05:53:00
1:13 AM,42.8,24.8,49,29.88,10.0,SSW,11.5,-,N/A,,Clear,210,2012-10-08 06:13:00
1:34 AM,42.8,24.8,49,29.87,10.0,SSW,17.3,-,N/A,,Clear,210,2012-10-08 06:34:00
1:53 AM,42.8,24.8,49,29.87,10.0,SSW,12.7,-,N/A,,Clear,210,2012-10-08 06:53:00
2:13 AM,41.0,24.8,53,29.87,10.0,SSW,11.5,-,N/A,,Clear,210,2012-10-08 07:13:00
2:34 AM,41.0,24.8,53,29.87,10.0,SSW,13.8,18.4,N/A,,Clear,210,2012-10-08 07:34:00
2:53 AM,41.0,24.8,53,29.86,10.0,SW,11.5,-,N/A,,Clear,220,2012-10-08 07:53:00
3:13 AM,41.0,24.8,53,29.86,10.0,SW,12.7,-,N/A,,Clear,220,2012-10-08 08:13:00
3:34 AM,41.0,26.6,57,29.85,10.0,SSW,10.4,-,N/A,,Clear,210,2012-10-08 08:34:00
3:53 AM,41.0,26.6,57,29.84,10.0,SSW,10.4,-,N/A,,Clear,210,2012-10-08 08:53:00
4:13 AM,41.0,26.6,57,29.84,10.0,SSW,11.5,16.1,N/A,,Clear,210,2012-10-08 09:13:00
4:34 AM,41.0,26.6,57,29.84,10.0,SSW,13.8,-,N/A,,Scattered Clouds,210,2012-10-08 09:34:00
4:53 AM,42.8,26.6,53,29.83,10.0,SSW,13.8,-,N/A,,Mostly Cloudy,210,2012-10-08 09:53:00
5:13 AM,42.8,26.6,53,29.83,10.0,SSW,12.7,18.4,N/A,,Overcast,210,2012-10-08 10:13:00
5:34 AM,42.8,28.4,57,29.82,10.0,SSW,11.5,17.3,N/A,,Overcast,210,2012-10-08 10:34:00
5:53 AM,42.8,28.4,57,29.82,10.0,SW,11.5,17.3,N/A,,Overcast,220,2012-10-08 10:53:00
6:13 AM,42.8,28.4,57,29.82,10.0,SSW,13.8,18.4,N/A,,Overcast,210,2012-10-08 11:13:00
6:33 AM,42.8,28.4,57,29.81,10.0,SSW,11.5,-,N/A,,Overcast,210,2012-10-08 11:33:00
6:53 AM,42.8,28.4,57,29.81,10.0,SSW,11.5,-,N/A,,Overcast,200,2012-10-08 11:53:00
7:14 AM,42.8,30.2,61,29.80,10.0,SSW,10.4,17.3,N/A,,Mostly Cloudy,210,2012-10-08 12:14:00
7:33 AM,42.8,30.2,61,29.80,10.0,SSW,11.5,-,N/A,,Mostly Cloudy,200,2012-10-08 12:33:00
7:53 AM,44.6,30.2,57,29.80,10.0,SSW,12.7,-,N/A,,Mostly Cloudy,200,2012-10-08 12:53:00
8:14 AM,44.6,30.2,57,29.79,10.0,SSW,11.5,-,N/A,,Overcast,210,2012-10-08 13:14:00
8:33 AM,44.6,30.2,57,29.79,10.0,SSW,10.4,-,N/A,,Mostly Cloudy,210,2012-10-08 13:33:00
8:53 AM,44.6,32.0,61,29.79,10.0,SSW,11.5,-,N/A,,Mostly Cloudy,200,2012-10-08 13:53:00
9:14 AM,46.4,30.2,53,29.79,10.0,SSW,15.0,-,N/A,,Scattered Clouds,210,2012-10-08 14:14:00
9:33 AM,46.4,30.2,53,29.78,10.0,SSW,11.5,-,N/A,,Mostly Cloudy,210,2012-10-08 14:33:00
9:53 AM,50.0,30.2,47,29.78,10.0,SSW,12.7,-,N/A,,Overcast,200,2012-10-08 14:53:00
10:14 AM,50.0,30.2,47,29.77,10.0,SSW,18.4,-,N/A,,Mostly Cloudy,210,2012-10-08 15:14:00
10:33 AM,51.8,30.2,44,29.76,10.0,SSW,15.0,-,N/A,,Scattered Clouds,210,2012-10-08 15:33:00
10:53 AM,53.6,30.2,41,29.75,10.0,SSW,16.1,19.6,N/A,,Mostly Cloudy,210,2012-10-08 15:53:00
11:14 AM,55.4,30.2,38,29.74,10.0,SSW,17.3,21.9,N/A,,Mostly Cloudy,200,2012-10-08 16:14:00
11:33 AM,57.2,28.4,33,29.74,10.0,SSW,20.7,26.5,N/A,,Scattered Clouds,210,2012-10-08 16:33:00
11:53 AM,59.0,28.4,31,29.73,10.0,SSW,20.7,-,N/A,,Clear,210,2012-10-08 16:53:00
12:13 PM,59.0,28.4,31,29.73,10.0,SSW,20.7,29.9,N/A,,Scattered Clouds,210,2012-10-08 17:13:00
12:54 PM,59.0,28.4,31,29.71,10.0,SW,21.9,26.5,N/A,,Mostly Cloudy,220,2012-10-08 17:54:00
1:13 PM,59.0,26.6,29,29.70,10.0,SSW,16.1,26.5,N/A,,Overcast,210,2012-10-08 18:13:00
1:33 PM,62.6,26.6,26,29.69,10.0,SSW,21.9,27.6,N/A,,Mostly Cloudy,210,2012-10-08 18:33:00
1:53 PM,64.4,24.8,22,29.68,10.0,SSW,20.7,26.5,N/A,,Scattered Clouds,210,2012-10-08 18:53:00
2:13 PM,68.0,23.0,18,29.66,5.0,SSW,23.0,31.1,N/A,,Haze,210,2012-10-08 19:13:00
2:34 PM,66.2,23.0,19,29.66,5.0,SW,24.2,34.5,N/A,,Haze,220,2012-10-08 19:34:00
2:53 PM,66.2,23.0,19,29.66,7.0,SW,24.2,35.7,N/A,,Clear,220,2012-10-08 19:53:00
3:13 PM,68.0,21.2,17,29.66,10.0,SW,21.9,32.2,N/A,,Clear,230,2012-10-08 20:13:00
3:34 PM,69.8,21.2,16,29.65,10.0,WSW,23.0,32.2,N/A,,Clear,240,2012-10-08 20:34:00
3:53 PM,69.8,21.2,16,29.65,10.0,WSW,25.3,35.7,N/A,,Clear,250,2012-10-08 20:53:00
4:13 PM,69.8,23.0,17,29.66,10.0,West,23.0,33.4,N/A,,Clear,260,2012-10-08 21:13:00
4:34 PM,69.8,28.4,21,29.66,10.0,West,25.3,33.4,N/A,,Scattered Clouds,260,2012-10-08 21:34:00
4:54 PM,68.0,28.4,23,29.67,10.0,WSW,18.4,32.2,N/A,,Scattered Clouds,250,2012-10-08 21:54:00
5:13 PM,68.0,28.4,23,29.67,10.0,WSW,17.3,25.3,N/A,,Scattered Clouds,250,2012-10-08 22:13:00
5:34 PM,68.0,32.0,26,29.67,10.0,West,17.3,26.5,N/A,,Overcast,270,2012-10-08 22:34:00
5:54 PM,68.0,33.8,28,29.68,10.0,WNW,19.6,28.8,N/A,,Mostly Cloudy,300,2012-10-08 22:54:00
6:13 PM,64.4,35.6,34,29.69,10.0,WNW,17.3,23.0,N/A,,Scattered Clouds,290,2012-10-08 23:13:00
6:33 PM,64.4,35.6,34,29.70,10.0,WNW,15.0,-,N/A,,Mostly Cloudy,290,2012-10-08 23:33:00
6:54 PM,62.6,35.6,37,29.71,10.0,WNW,15.0,20.7,N/A,,Overcast,300,2012-10-08 23:54:00
7:13 PM,62.6,35.6,37,29.72,10.0,WNW,12.7,17.3,N/A,,Mostly Cloudy,300,2012-10-09 00:13:00
7:33 PM,60.8,35.6,39,29.73,10.0,NW,11.5,17.3,N/A,,Mostly Cloudy,310,2012-10-09 00:33:00
7:54 PM,60.8,35.6,39,29.74,10.0,WNW,13.8,18.4,N/A,,Overcast,300,2012-10-09 00:54:00
8:13 PM,60.8,37.4,42,29.75,10.0,WNW,10.4,17.3,N/A,Rain,Light Rain,300,2012-10-09 01:13:00
8:34 PM,59.0,41.0,51,29.77,10.0,WNW,11.5,-,N/A,Rain,Light Rain,290,2012-10-09 01:34:00
8:53 PM,55.4,41.0,58,29.78,10.0,WNW,11.5,17.3,N/A,Rain,Light Rain,290,2012-10-09 01:53:00
9:13 PM,53.6,42.8,67,29.79,10.0,WNW,9.2,-,N/A,Rain,Light Rain,290,2012-10-09 02:13:00
9:34 PM,53.6,44.6,72,29.79,10.0,West,4.6,-,N/A,,Light Drizzle,270,2012-10-09 02:34:00
9:53 PM,53.6,44.6,72,29.79,10.0,SW,3.5,-,N/A,,Light Drizzle,230,2012-10-09 02:53:00
10:13 PM,51.8,46.4,82,29.79,10.0,SSW,5.8,-,N/A,,Light Drizzle,210,2012-10-09 03:13:00
10:53 PM,51.8,44.6,76,29.79,10.0,South,4.6,-,N/A,,Light Drizzle,190,2012-10-09 03:53:00
11:13 PM,51.8,44.6,76,29.79,10.0,South,6.9,-,N/A,,Overcast,180,2012-10-09 04:13:00
11:33 PM,50.0,44.6,82,29.79,10.0,SSW,4.6,-,N/A,,Overcast,200,2012-10-09 04:33:00
11:53 PM,50.0,44.6,82,29.78,10.0,Calm,Calm,-,N/A,,Overcast,0,2012-10-09 04:53:00